Flag for Madagascar Weather past 2 weeks in Antsirabe, Madagascar

Now
68 °F

Partly cloudy.


Feels Like: 68 °F
Forecast: 55 / 78 °F
Wind: 2 mph from North

Location: Antananarivo / Ivato

Current Time: Jan 28, 2015 at 8:11:41 PM

Latest Report: Jan 28, 2015 at 7:30 PM


Visibility: N/A

Pressure: 30.09 "Hg

Humidity: 100%

Dew point: 68 °F

Location of AntsirabeLocation

Historic Weather in Antsirabe — Graph

°F

Antsirabe temperature yesterday

Maximum temperature yesterday: 79 °F (at 1:30 PM)
Minimum temperature yesterday: 63 °F (at 1:30 AM)
Average temperature yesterday: 70 °F

Past Weeks' High & Low Weather Summary

 TemperatureHumidityPressure
High86 °F (Jan 20, 1:30 PM)100% (Jan 13, 7:00 PM)30.39 "Hg (Jan 13, 7:00 PM)
Low61 °F (Jan 24, 2:00 AM)58% (Jan 19, 3:00 PM)29.71 "Hg (Jan 17, 2:30 AM)
Average70 °F95%30.03 "Hg
* Reported Jan 13 7:00 PM — Jan 28 7:00 PM, Antsirabe, Weather by CustomWeather, © 2014

Note: Actual official high and low records may vary slightly from our data, if they occured in-between our weather recording intervals... More about our weather records

Advertising

Antsirabe weather history for previous 24 hours

 ConditionsComfort  
Time TempWeatherWind HumidityBarometerVisibility
7:00 PM
Jan 28
68 °FPartly cloudy.No wind100%30.07 "HgN/A
6:30 PM68 °FLight rain. Broken clouds.5 mph100%30.07 "HgN/A
6:00 PM66 °FLight rain. Broken clouds.13 mph100%30.07 "Hg4 mi
5:30 PM66 °FRain. Partly sunny.18 mph100%30.04 "Hg5 mi
5:00 PM77 °FBroken clouds.9 mph74%30.04 "HgN/A
4:30 PM77 °FScattered showers. Scattered clouds.9 mph61%30.04 "HgN/A
4:00 PM82 °FPartly sunny.8 mph66%30.04 "HgN/A
3:30 PM82 °FPartly sunny.7 mph66%30.04 "HgN/A
3:00 PM81 °FPartly sunny.6 mph66%30.04 "HgN/A
2:30 PM81 °FPartly sunny.7 mph66%30.07 "HgN/A
2:00 PM81 °FScattered clouds.8 mph70%30.07 "HgN/A
1:30 PM81 °FScattered clouds.7 mph70%30.07 "HgN/A
1:00 PM81 °FScattered clouds.7 mph70%30.07 "HgN/A
12:30 PM79 °FPartly sunny.8 mph74%30.09 "HgN/A
12:00 PM79 °FPartly sunny.9 mph74%30.09 "HgN/A
11:30 AM77 °FPartly sunny.9 mph79%30.12 "HgN/A
11:00 AM77 °FPartly sunny.7 mph79%30.12 "HgN/A
10:30 AM77 °FPartly sunny.7 mph83%30.12 "HgN/A
10:00 AM75 °FPartly sunny.8 mph89%30.12 "HgN/A
9:30 AM73 °FPartly sunny.6 mph89%30.12 "HgN/A
9:00 AM70 °FPartly sunny.8 mph94%30.12 "HgN/A
8:30 AM70 °FPartly sunny.6 mph94%30.12 "HgN/A
8:00 AM66 °FPartly sunny.6 mph100%30.15 "HgN/A
7:30 AM64 °FPartly sunny.7 mph100%30.15 "HgN/A
7:00 AM64 °FScattered clouds.7 mph100%30.15 "HgN/A
6:30 AM66 °FPartly sunny.8 mph100%30.12 "HgN/A
6:00 AM63 °FScattered clouds.7 mph100%30.12 "HgN/A
5:30 AM63 °FPassing clouds.5 mph100%30.12 "HgN/A
5:00 AM63 °FPassing clouds.7 mph100%30.09 "HgN/A
4:30 AM64 °FPartly cloudy.9 mph100%30.09 "HgN/A
4:00 AM64 °FPartly cloudy.8 mph100%30.09 "HgN/A
3:00 AM64 °FPassing clouds.12 mph100%30.09 "HgN/A
2:30 AM64 °FPassing clouds.10 mph100%30.09 "HgN/A
2:00 AM64 °FPassing clouds.6 mph100%30.12 "HgN/A
1:00 AM66 °FPassing clouds.7 mph100%30.12 "HgN/A
12:30 AM66 °FPassing clouds.8 mph100%30.12 "HgN/A
12:00 AM66 °FPassing clouds.7 mph100%30.15 "HgN/A
11:30 PM
Jan 27
66 °FPassing clouds.7 mph100%30.15 "HgN/A
11:00 PM66 °FPassing clouds.6 mph100%30.15 "HgN/A
10:30 PM66 °FPassing clouds.3 mph100%30.15 "HgN/A
10:00 PM66 °FPassing clouds.6 mph100%30.15 "HgN/A
9:30 PM68 °FPassing clouds.6 mph100%30.15 "HgN/A
9:00 PM68 °FPassing clouds.7 mph100%30.15 "HgN/A
8:30 PM68 °FPassing clouds.8 mph100%30.15 "HgN/A
8:00 PM68 °FPassing clouds.7 mph100%30.12 "HgN/A
Weather by CustomWeather, © 2014

See weather overviewHow to use our weather pages